Regional Weather Roundup
Issued by NWS

Home | Current Version | Previous Version | Graphics & Text | Print | Product List | Glossary On
Versions: 1 2 3 4 5 6 7 8 9 10 11 12 13 14 15 16 17 18 19 20 21 22 23 24 25 26 27 28 29 30 31 32 33 34 35 36 37 38 39 40 41 42 43 44 45 46 47 48 49 50
000
ASUS43 KFSD 260302
RWRSD

WEATHER ROUNDUP FOR SOUTH DAKOTA
NATIONAL WEATHER SERVICE SIOUX FALLS SD
900 PM CST THU DEC 25 2014

NOTE: "FAIR" INDICATES FEW OR NO CLOUDS BELOW 12,000 FEET WITH NO
SIGNIFICANT WEATHER AND/OR OBSTRUCTIONS TO VISIBILITY.


SDZ001>005-009-010-012>017-260400-
NORTHWEST AND NORTH CENTRAL SOUTH DAKOTA

CITY           SKY/WX    TMP DP  RH WIND       PRES   REMARKS
BUFFALO          N/A     22  17  81 N14       29.90R WCI   9
FAITH            N/A     24  18  77 N15       29.96R WCI  11
MOBRIDGE       CLOUDY    28  22  78 NW10      29.94R WCI  19
$$

SDZ012>016-024>037-041>051-057-063-072>074-260400-
SOUTHWEST AND SOUTH CENTRAL SOUTH DAKOTA

CITY           SKY/WX    TMP DP  RH WIND       PRES   REMARKS
RAPID CTY ARPT FLURRIES  22  18  85 N20       29.95R WCI   7
PIERRE         CLOUDY    26  22  84 N17       29.95R WCI  13
CUSTER         CLOUDY    17  12  80 N5        29.80R WCI  10
ELLSWORTH AFB  CLOUDY    22  19  87 N16       29.95  WCI   8
PHILIP         CLOUDY    26  21  81 N16       29.96R WCI  14
PINE RIDGE     LGT SNOW  24  20  84 N15       29.90R FOG     WCI  11
WINNER         LGT SNOW  27  24  89 N15       29.90R FOG     WCI  15
$$

SDZ004>011-016>023-039-040-260400-
NORTHEAST SOUTH DAKOTA

CITY           SKY/WX    TMP DP  RH WIND       PRES   REMARKS
ABERDEEN       CLOUDY    28  22  78 N10       29.95R WCI  19
WATERTOWN      LGT SNOW  26  24  92 N9        29.87R FOG     WCI  17
$$

SDZ017-020-022-023-036>040-048>070-260400-
SOUTHEAST SOUTH DAKOTA

CITY           SKY/WX    TMP DP  RH WIND       PRES   REMARKS
SIOUX FALLS    FRZ DRZL  30  28  92 N17G23    29.80R FOG     WCI  18
HURON          LGT SNOW  26  24  92 N14       29.92R VSB 1   WCI  14
MITCHELL       CLOUDY    27  25  92 N21       29.88R WCI  13
YANKTON        CLOUDY    34  28  80 N12       29.80S WCI  25
$$

ABBREVIATIONS USED IN REMARKS
   TC - TEMPERATURE IN CELSIUS
  WCI - WIND CHILL INDEX
   HX - HEAT INDEX
  VSB - VISIBILITY



USA.gov is the U.S. government's official web portal to all federal, state and local government web resources and services.